STRIX 2

导读 | 豆包AI

STRIX 2是日本开发的近地轨道卫星,于2024年12月21日成功发射,目前处于在轨运行状态。它归属日本Synspective公司的StriX合成孔径雷达卫星星座,该星座最终将部署30颗卫星。卫星运行在近地点约533公里、远地点约558公里的近极地太阳同步轨道,具备全天时、全天候对地观测能力,可穿透云雾实现夜间成像,能为防灾减灾、环境监测等领域提供高精度地理空间数据。

基本信息
目录编号:
62406
目录名称:
STRIX 2
国际标识:
2024-248A
轨道中心:
EARTH
卫星名称:
STRIX 2
卫星全名:
STRIX 2
卫星状态:
在轨 (已飞行496 天)
发射日期:
2024-12-21 UTC
国别 :
日本 (JP)
星等 :
--
轨道信息
数据来源 国际轨道数据
星历时间: 2026-04-30T23:34:06+0800
9小时前
查看轨道信息
半长轴: 6919.411km
偏心率: 0.0017251
轨道倾角: 97.626°
近地点辐角 132.332°
升交点赤经 76.598°
平近点角 227.937°
近地点: 529.337km
远地点: 553.211km
周期: 95.469分钟
每日圈数: 15.083394
详细信息
使用方式:
暂无
2D轨道图
3D轨道图
轨道高度分析图
轨道倾角分析图
轨道综合分析图
查看轨道综合分析图